Location: Newark
(46.1292°N, 1.0086°W)
Time: 00:43:57
(UTC+00:00)

Vanguard 3 - Pass Details

Date: 18 November 2019
Orbit: 508 x 3263 km, 33.3° (Epoch: 13 December)

Event Time Altitude Azimuth Distance (km) Brightness Sun altitude
Rises 20:18:52 0° 276° (W) 6,563 12.7 -39.5°
Reaches altitude 10° 20:25:28 10° 261° (W) 5,037 11.7 -40.6°
Maximum altitude 20:33:31 18° 225° (SW) 3,612 10.6 -41.9°
Enters shadow 20:37:19 15° 200° (SSW) 3,445 10.3 -42.5°
Drops below altitude 10° 20:39:31 10° 186° (S) 3,573 - -42.9°
Sets 20:43:06 0° 168° (SSE) 4,114 - -43.5°
